Weather History for KPRO - March, 2012

Change the Weather History Date:

Saturday, March 3, 2012

  Actual Average Record
Temperature  
Mean Temperature 30 °F -  
Max Temperature 34 °F 40 °F 72 °F (1983)
Min Temperature 27 °F 21 °F -10 °F (2014)
Degree Days  
Heating Degree Days 34    
Moisture  
Dew Point 25 °F    
Average Humidity 80    
Maximum Humidity 88    
Minimum Humidity 73    
Precipitation  
Precipitation 0.00 in - - ()
Sea Level Pressure  
Sea Level Pressure 29.85 in    
Wind  
Wind Speed 20 mph (WNW)    
Max Wind Speed 25 mph    
Max Gust Speed 37 mph    
Visibility 10 miles    
Events      
Averages and records for this station are not official NWS values.
T = Trace of Precipitation, MM = Missing Value Source: NWS Daily Summary

Daily Weather History Graph

Daily Weather History Graph

Search for Another Location

Airport or City:

Trip Planner

Search our weather history database for the weather conditions in past years. The results will help you decide how hot, cold, wet, or windy it might be!

Date:

Astronomy

Mar. 03, 2012 Rise Set
Actual Time 6:47 AM CST 6:09 PM CST
Civil Twilight 6:19 AM CST 6:37 PM CST
Nautical Twilight 5:47 AM CST 7:10 PM CST
Astronomical Twilight 5:15 AM CST 7:42 PM CST
Moon 1:17 PM CST (3/3) 3:29 AM CST (3/3)
Length of Visible Light 12h 18m
Length of Day
11h 22m
Waxing Gibbous, 75% of the Moon is Illuminated
Mar 3
Waxing Gibbous
Mar 8
Full
Mar 14
Last Quarter
Mar 22
New
Mar 30
First Quarter

Hourly Weather History & Observations

Time (CST) Temp. Windchill Dew Point Humidity Pressure Visibility Wind Dir Wind Speed Gust Speed Precip Events Conditions
12:15 AM 30.0 °F 18.3 °F 25.7 °F 84% 29.80 in 10.0 mi WNW 17.3 mph 24.2 mph N/A   Overcast
12:35 AM 30.2 °F 17.1 °F 26.4 °F 86% 29.80 in 10.0 mi West 21.9 mph 28.8 mph N/A   Overcast
12:55 AM 30.0 °F 18.3 °F 26.2 °F 86% 29.80 in 10.0 mi WNW 17.3 mph 24.2 mph N/A   Overcast
1:15 AM 30.0 °F 16.6 °F 25.5 °F 83% 29.80 in 10.0 mi WNW 23.0 mph 36.8 mph N/A   Overcast
1:35 AM 29.8 °F 17.3 °F 25.7 °F 85% 29.79 in 10.0 mi WNW 19.6 mph 26.5 mph N/A   Overcast
1:55 AM 29.7 °F 17.1 °F 26.4 °F 88% 29.79 in 10.0 mi WNW 19.6 mph 27.6 mph N/A   Overcast
2:15 AM 29.8 °F 16.3 °F 25.2 °F 83% 29.79 in 10.0 mi West 23.0 mph 32.2 mph N/A   Overcast
2:35 AM 29.8 °F 15.7 °F 25.3 °F 83% 29.79 in 10.0 mi West 25.3 mph 31.1 mph N/A   Overcast
2:55 AM 29.7 °F 15.5 °F 25.3 °F 84% 29.79 in 10.0 mi WNW 25.3 mph 31.1 mph N/A   Overcast
3:15 AM 29.8 °F 17.0 °F 25.0 °F 82% 29.78 in 10.0 mi WNW 20.7 mph 28.8 mph N/A   Overcast
3:35 AM 29.7 °F 16.7 °F 24.6 °F 81% 29.79 in 10.0 mi WNW 20.7 mph 28.8 mph N/A   Overcast
3:55 AM 29.7 °F 15.8 °F 24.3 °F 80% 29.79 in 10.0 mi WNW 24.2 mph 32.2 mph N/A   Overcast
4:15 AM 29.8 °F 15.7 °F 23.4 °F 77% 29.79 in 10.0 mi WNW 25.3 mph 33.4 mph N/A   Overcast
4:35 AM 29.3 °F 16.6 °F 24.8 °F 83% 29.79 in 10.0 mi WNW 19.6 mph 25.3 mph N/A   Overcast
4:55 AM 29.1 °F 16.7 °F 24.8 °F 84% 29.80 in 10.0 mi WNW 18.4 mph 31.1 mph N/A   Overcast
5:15 AM 28.9 °F 16.9 °F 25.0 °F 85% 29.80 in 10.0 mi WNW 17.3 mph 23.0 mph N/A   Overcast
5:35 AM 28.0 °F 14.9 °F 23.7 °F 84% 29.81 in 10.0 mi WNW 19.6 mph 33.4 mph N/A   Mostly Cloudy
5:55 AM 27.3 °F 13.6 °F 22.1 °F 81% 29.82 in 10.0 mi NW 20.7 mph 32.2 mph N/A   Scattered Clouds
6:15 AM 27.5 °F 15.0 °F 23.0 °F 83% 29.83 in 10.0 mi WNW 17.3 mph 23.0 mph N/A   Mostly Cloudy
6:35 AM 27.5 °F 16.3 °F 24.3 °F 88% 29.83 in 10.0 mi WNW 13.8 mph 19.6 mph N/A   Overcast
6:55 AM 28.2 °F 15.5 °F 23.0 °F 81% 29.83 in 10.0 mi WNW 18.4 mph 25.3 mph N/A   Overcast
7:15 AM 28.4 °F 16.2 °F 24.4 °F 85% 29.84 in 10.0 mi WNW 17.3 mph 27.6 mph N/A   Overcast
7:35 AM 28.4 °F 15.4 °F 23.9 °F 83% 29.85 in 10.0 mi WNW 19.6 mph 27.6 mph N/A   Overcast
7:55 AM 28.2 °F 14.8 °F 24.6 °F 86% 29.86 in 10.0 mi WNW 20.7 mph 29.9 mph N/A   Overcast
8:15 AM 28.0 °F 15.3 °F 23.5 °F 83% 29.86 in 10.0 mi WNW 18.4 mph 27.6 mph N/A   Overcast
8:35 AM 28.2 °F 14.2 °F 23.0 °F 81% 29.87 in 10.0 mi WNW 23.0 mph 28.8 mph N/A   Overcast
8:55 AM 28.9 °F 16.1 °F 23.4 °F 80% 29.87 in 10.0 mi WNW 19.6 mph 31.1 mph N/A   Overcast
9:15 AM 28.8 °F 16.2 °F 23.9 °F 82% 29.88 in 10.0 mi WNW 18.4 mph 32.2 mph N/A   Overcast
9:35 AM 29.3 °F 16.6 °F 23.4 °F 78% 29.88 in 10.0 mi WNW 19.6 mph 27.6 mph N/A   Mostly Cloudy
9:55 AM 28.9 °F 14.5 °F 23.5 °F 80% 29.89 in 10.0 mi WNW 25.3 mph 29.9 mph N/A   Overcast
10:15 AM 30.0 °F 17.2 °F 23.9 °F 78% 29.89 in 10.0 mi WNW 20.7 mph 29.9 mph N/A   Mostly Cloudy
10:55 AM 31.8 °F 19.0 °F 26.1 °F 79% 29.89 in 10.0 mi WNW 23.0 mph 31.1 mph N/A   Overcast
11:15 AM 31.3 °F 18.5 °F 25.5 °F 79% 29.90 in 10.0 mi WNW 21.9 mph 29.9 mph N/A   Mostly Cloudy
11:35 AM 31.6 °F 20.0 °F 25.7 °F 79% 29.90 in 10.0 mi WNW 18.4 mph 28.8 mph N/A   Mostly Cloudy
11:55 AM 31.6 °F 20.0 °F 25.5 °F 78% 29.90 in 10.0 mi NW 18.4 mph 29.9 mph N/A   Mostly Cloudy
12:15 PM 32.0 °F 20.1 °F 26.1 °F 79% 29.90 in 10.0 mi WNW 19.6 mph 26.5 mph N/A   Mostly Cloudy
12:35 PM 32.4 °F 20.6 °F 26.4 °F 79% 29.90 in 10.0 mi WNW 19.6 mph 25.3 mph N/A   Scattered Clouds
12:55 PM 33.1 °F 21.5 °F 27.0 °F 78% 29.89 in 10.0 mi WNW 19.6 mph 28.8 mph N/A   Scattered Clouds
1:15 PM 33.3 °F 20.6 °F 26.4 °F 76% 29.89 in 10.0 mi WNW 24.2 mph 31.1 mph N/A   Mostly Cloudy
1:35 PM 33.1 °F 21.9 °F 26.6 °F 77% 29.89 in 10.0 mi NW 18.4 mph 29.9 mph N/A   Mostly Cloudy
1:55 PM 33.3 °F 21.8 °F 26.6 °F 77% 29.89 in 10.0 mi NW 19.6 mph 29.9 mph N/A   Mostly Cloudy
2:15 PM 33.3 °F 22.5 °F 26.4 °F 76% 29.89 in 10.0 mi NW 17.3 mph - N/A   Mostly Cloudy
2:35 PM 34.5 °F 23.1 °F 27.0 °F 74% 29.89 in 10.0 mi WNW 20.7 mph 26.5 mph N/A   Mostly Cloudy
2:55 PM 34.0 °F 23.4 °F 26.2 °F 73% 29.89 in 10.0 mi WNW 17.3 mph 29.9 mph N/A   Mostly Cloudy
3:15 PM 34.2 °F 22.6 °F 26.6 °F 74% 29.89 in 10.0 mi WNW 20.7 mph 26.5 mph N/A   Overcast
3:55 PM 32.2 °F 20.7 °F 25.2 °F 75% 29.90 in 10.0 mi NW 18.4 mph 32.2 mph N/A   Scattered Clouds
4:15 PM 32.2 °F 20.4 °F 24.6 °F 74% 29.91 in 10.0 mi NW 19.6 mph 23.0 mph N/A   Overcast
4:55 PM 32.9 °F 23.2 °F 26.1 °F 76% 29.92 in 10.0 mi NW 13.8 mph 24.2 mph N/A   Overcast
5:15 PM 31.5 °F 20.9 °F 23.5 °F 73% 29.92 in 10.0 mi WNW 15.0 mph 20.7 mph N/A   Mostly Cloudy
5:35 PM 31.1 °F 21.4 °F 23.5 °F 74% 29.92 in 10.0 mi NW 12.7 mph - N/A   Scattered Clouds
5:55 PM 30.9 °F 20.7 °F 23.9 °F 75% 29.92 in 10.0 mi NW 13.8 mph - N/A   Mostly Cloudy
6:15 PM 30.2 °F 21.9 °F 24.4 °F 79% 29.92 in 10.0 mi NW 9.2 mph - N/A   Mostly Cloudy
6:35 PM 29.7 °F 21.3 °F 23.9 °F 79% 29.92 in 10.0 mi NW 9.2 mph - N/A   Scattered Clouds
6:55 PM 29.1 °F 20.6 °F 24.4 °F 83% 29.92 in 10.0 mi NW 9.2 mph - N/A   Clear
7:15 PM 29.1 °F 20.6 °F 23.7 °F 80% 29.92 in 10.0 mi NW 9.2 mph - N/A   Clear
7:35 PM 28.4 °F 19.7 °F 23.5 °F 82% 29.92 in 10.0 mi NW 9.2 mph - N/A   Clear
7:55 PM 28.2 °F 20.2 °F 23.7 °F 83% 29.92 in 10.0 mi NW 8.1 mph - N/A   Clear
8:15 PM 27.1 °F 20.7 °F 24.3 °F 89% 29.91 in 10.0 mi NW 5.8 mph - N/A   Clear
8:35 PM 26.6 °F 21.2 °F 24.3 °F 91% 29.91 in 10.0 mi NW 4.6 mph - N/A   Clear
8:55 PM 26.2 °F 20.7 °F 24.4 °F 93% 29.91 in 10.0 mi NW 4.6 mph - N/A   Clear
9:15 PM 25.9 °F 19.2 °F 24.3 °F 94% 29.91 in 10.0 mi NW 5.8 mph - N/A   Clear
9:35 PM 25.5 °F 19.9 °F 23.9 °F 94% 29.91 in 10.0 mi NW 4.6 mph - N/A   Clear
9:55 PM 25.2 °F 19.5 °F 23.7 °F 94% 29.91 in 10.0 mi NW 4.6 mph - N/A   Clear
10:15 PM 24.3 °F 19.9 °F 23.5 °F 97% 29.91 in 10.0 mi NW 3.5 mph - N/A   Clear
10:35 PM 22.3 °F 17.6 °F 22.1 °F 99% 29.91 in 10.0 mi West 3.5 mph - N/A   Clear
10:55 PM 20.8 °F 14.4 °F 20.8 °F 100% 29.91 in 10.0 mi West 4.6 mph - N/A   Clear
11:15 PM 20.8 °F 14.4 °F 20.8 °F 100% 29.90 in 10.0 mi West 4.6 mph - N/A   Clear
11:35 PM 20.7 °F 13.0 °F 20.7 °F 100% 29.89 in 10.0 mi West 5.8 mph - N/A   Clear
11:55 PM 20.1 °F 11.3 °F 20.1 °F 100% 29.89 in 10.0 mi West 6.9 mph - N/A   Clear